Weather History for KOLF - January, 2014

Change the Weather History Date:

Sunday, January 19, 2014

  Actual Average Record
Temperature  
Mean Temperature 36 °F -  
Max Temperature 43 °F 24 °F 43 °F (2014)
Min Temperature 28 °F 1 °F -19 °F (2011)
Degree Days  
Heating Degree Days 29    
Cooling Degree Days 0    
Moisture  
Dew Point 25 °F    
Average Humidity 66    
Maximum Humidity 82    
Minimum Humidity 51    
Precipitation  
Precipitation 0.00 in 0.01 in 0.07 in (2006)
Month to date precipitation 0.05 0.23  
Year to date precipitation 0.05 0.23  
Sea Level Pressure  
Sea Level Pressure 29.86 in    
Wind  
Wind Speed 11 mph (West)    
Max Wind Speed 20 mph    
Max Gust Speed 25 mph    
Visibility 10 miles    
Events      
T = Trace of Precipitation, MM = Missing Value Source: NWS Daily Summary

Daily Weather History Graph

Daily Weather History Graph

Search for Another Location

Airport or City:

Trip Planner

Search our weather history database for the weather conditions in past years. The results will help you decide how hot, cold, wet, or windy it might be!

Date:

Astronomy

Jan. 19, 2014 Rise Set
Actual Time 7:44 AM MST 4:42 PM MST
Civil Twilight 7:09 AM MST 5:16 PM MST
Nautical Twilight 6:31 AM MST 5:55 PM MST
Astronomical Twilight 5:54 AM MST 6:32 PM MST
Moon 8:43 PM MST (1/19) 8:57 AM MST (1/19)
Length of Visible Light 10h 07m
Length of Day
8h 57m
Waning Gibbous, 89% of the Moon is Illuminated
Jan 19
Waning Gibbous
Jan 23
Last Quarter
Jan 30
New
Feb 6
First Quarter
Feb 14
Full

Hourly Weather History & Observations

Time (MST) Temp. Windchill Dew Point Humidity Pressure Visibility Wind Dir Wind Speed Gust Speed Precip Events Conditions
12:53 AM 32.0 °F 24.8 °F 25.0 °F 75% 29.73 in 10.0 mi WSW 8.1 mph - N/A   Clear
1:53 AM 28.9 °F 21.1 °F 24.1 °F 82% 29.72 in 10.0 mi WSW 8.1 mph - N/A   Clear
2:53 AM 30.9 °F 22.2 °F 25.0 °F 79% 29.71 in 10.0 mi West 10.4 mph - N/A   Clear
3:53 AM 33.1 °F 21.5 °F 25.0 °F 72% 29.71 in 10.0 mi West 19.6 mph - N/A   Clear
4:53 AM 34.0 °F 24.6 °F 25.0 °F 70% 29.72 in 10.0 mi West 13.8 mph - N/A   Clear
5:53 AM 37.9 °F 28.9 °F 25.0 °F 60% 29.75 in 10.0 mi West 16.1 mph 23.0 mph N/A   Clear
6:53 AM 34.0 °F 25.0 °F 25.0 °F 70% 29.82 in 10.0 mi WSW 12.7 mph - N/A   Clear
7:53 AM 33.1 °F 23.9 °F 24.1 °F 70% 29.83 in 10.0 mi West 12.7 mph - N/A   Clear
8:53 AM 34.0 °F 26.6 °F 24.1 °F 67% 29.85 in 10.0 mi WSW 9.2 mph - N/A   Clear
9:53 AM 37.0 °F 29.8 °F 25.0 °F 62% 29.86 in 10.0 mi West 10.4 mph - N/A   Clear
10:53 AM 39.9 °F 32.9 °F 26.1 °F 58% 29.85 in 10.0 mi West 11.5 mph - N/A   Clear
11:53 AM 42.1 °F 35.2 °F 26.1 °F 53% 29.85 in 10.0 mi West 12.7 mph - N/A   Clear
12:53 PM 43.0 °F 37.7 °F 26.1 °F 51% 29.84 in 10.0 mi West 9.2 mph - N/A   Clear
1:53 PM 42.1 °F 37.1 °F 26.1 °F 53% 29.85 in 10.0 mi West 8.1 mph - N/A   Clear
2:53 PM 42.1 °F 36.6 °F 28.0 °F 58% 29.85 in 10.0 mi West 9.2 mph - N/A   Clear
3:53 PM 41.0 °F 34.7 °F 27.0 °F 57% 29.88 in 10.0 mi West 10.4 mph - N/A   Clear
4:53 PM 37.0 °F 31.0 °F 26.1 °F 65% 29.91 in 10.0 mi West 8.1 mph - N/A   Clear
5:53 PM 35.1 °F 30.1 °F 28.0 °F 76% 29.92 in 10.0 mi West 5.8 mph - N/A   Scattered Clouds
6:53 PM 36.0 °F 27.1 °F 27.0 °F 70% 29.94 in 10.0 mi West 13.8 mph - N/A   Overcast
7:53 PM 34.0 °F 25.5 °F 26.1 °F 73% 29.94 in 10.0 mi West 11.5 mph - N/A   Mostly Cloudy
8:53 PM 35.1 °F 24.8 °F 25.0 °F 67% 29.97 in 10.0 mi WNW 17.3 mph - N/A   Clear
9:53 PM 34.0 °F 22.7 °F 23.0 °F 64% 30.01 in 10.0 mi WNW 19.6 mph 25.3 mph N/A   Clear
10:53 PM 32.0 °F 23.6 °F 23.0 °F 69% 30.03 in 10.0 mi West 10.4 mph - N/A   Clear
11:53 PM 30.9 °F 19.4 °F 23.0 °F 72% 30.02 in 10.0 mi West 17.3 mph - N/A   Scattered Clouds